Regional Weather Roundup
Issued by NWS New Orleans/Baton Rouge, LA

Home | Current Version | Previous Version | Text Only | Print | Product List | Glossary On
Versions: 1 2 3 4 5 6 7 8 9 10 11 12 13 14 15 16 17 18 19 20 21 22 23 24 25 26 27 28 29 30 31 32 33 34 35 36 37 38 39 40 41 42 43 44 45 46 47 48 49 50
435
ASUS44 KLIX 251606
RWRLIX
NEW ORLEANS REGIONAL WEATHER ROUNDUP
NATIONAL WEATHER SERVICE NEW ORLEANS LA
1100 AM CDT WED APR 25 2018

NOTE: "FAIR" INDICATES FEW OR NO CLOUDS BELOW 12,000 FEET WITH NO
      SIGNIFICANT WEATHER AND/OR OBSTRUCTIONS TO VISIBILITY.
      SKY/WX - SKY CONDITION AND SIGNIFICANT WEATHER.
      TMP - AIR TEMPERATURE.     DP    - DEWPOINT TEMPERATURE.
      RH  - RELATIVE HUMIDITY.   PRES  - PRESSURE.
      HI  - HEAT INDEX.          WCI   - WIND CHILL INDEX.

*  THESE STATIONS ARE NOT NWS OR FAA STATIONS AND ARE NOT UNDER
   NWS QUALITY CONTROL.

LAZ038-040-048-061>063-065>067-069-251700-
SOUTHEAST LOUISIANA

CITY           SKY/WX    TMP DP  RH WIND       PRES   REMARKS
N.O. INTL ARPT FAIR      75  56  51 N5        30.05F
N.O. LAKEFRONT FAIR      72  56  57 N6        30.06F
N.O. DOWNTOWN* FAIR      74  54  49 VRB6      30.06F
RESERVE*       FAIR      79  54  40 N5        30.06S
SLIDELL        FAIR      74  53  48 N10       30.03F
BATON ROUGE    FAIR      75  51  43 CALM      30.07S
BOOTHVILLE     FAIR      71  59  65 N6        30.06F
BELLE CHASSE   FAIR      75  58  55 VRB5      30.04F
BOGALUSA*      FAIR      73  54  51 N3        30.06F
GALLIANO*      FAIR      75  55  50 NE5       30.05S
NEW ROADS*     FAIR      77  55  47 NE3       30.09R
GONZALES*      FAIR      75  52  43 E5        30.06S
HAMMOND*       FAIR      73  55  53 CALM      30.06S
HOUMA*         SUNNY     75  54  46 NE6       30.06F
PORT FOURCHON* SUNNY     73  57  56 CALM      30.06S

$$

MSZ070-080>082-251700-
SOUTHERN MISSISSIPPI

CITY           SKY/WX    TMP DP  RH WIND       PRES   REMARKS
MCCOMB         FAIR      74  51  44 VRB5      30.07S
GULFPORT       FAIR      75  55  49 N10       30.03F
BILOXI         FAIR      73  54  50 N6        30.03F
PASCAGOULA     FAIR      73  54  51 N9        30.04F
STENNIS ARPT*  SUNNY     73  55  53 N8        30.04F

$$

COASTAL OBSERVATIONS
LAKE AND NEARSHORE STATIONS

STATION/POSITION TIME  SKY/WX   TEMP    WIND        PRES    WAVE
                                AIR SEA DIR/SP/G            HT/PER
                 (UTC)          (F)     (DEG/KT/KT) (MB)    (FT/S)
WAVELAND YACHT   1542            69 70  350/  8/  9 1017.4
GRAND ISLE       1542            71 72   10/  5/  8 1017.7
SOUTHWEST PASS   1548            68 59   10/  8/ 10 1018.3
NEW CANAL        1542            68 71   30/  4/  5 1017.6
SHELL BEACH      1542            66 74   10/  6/  7 1017.7

OFFSHORE STATIONS

STATION/POSITION TIME  SKY/WX   TEMP    WIND        PRES    WAVE
                                AIR SEA DIR/SP/G            HT/PER
                 (UTC)          (F)     (DEG/KT/KT) (MB)    (FT/S)
64 S DAUPHIN ISL 1550               72  350/ 10/ 14 1017.7    2/ 4

$$





USA.gov is the U.S. government's official web portal to all federal, state and local government web resources and services.